Demopolis Municipal Airport, AL

1:24 AM CDT on September 20, 2019 (GMT -0500)
Demopolis Municipal Airport

Weather History for KDYA - July, 2019

Change the Weather History Date:

Tuesday, July 9, 2019

  Actual Average (WUND) Record (WUND)
Temperature  
Mean Temperature 87 °F -  
Max Temperature 97 °F - - (-1)
Min Temperature 76 °F - - (-1)
Cooling Degree Days 22    
Growing Degree Days 37 (Base 50)    
Moisture  
Dew Point 72 °F    
Average Humidity 56    
Maximum Humidity 88    
Minimum Humidity 40    
Precipitation  
Precipitation 0.00 in - - ()
Sea Level Pressure  
Sea Level Pressure 29.93 in    
Wind  
Wind Speed 5 mph (NNW)    
Max Wind Speed 13 mph    
Max Gust Speed 21 mph    
Visibility 9 miles    
Events      
Averages and records for this station are not official NWS values.
T = Trace of Precipitation, MM = Missing Value Source: NWS Daily Summary

Daily Weather History Graph

Daily Weather History Graph

Search for Another Location

Airport or City:

Astronomy

Jul. 09, 2019 Rise Set
Actual Time 5:51 AM CDT 8:01 PM CDT
Civil Twilight 5:23 AM CDT 8:30 PM CDT
Nautical Twilight 4:49 AM CDT 9:04 PM CDT
Astronomical Twilight 4:12 AM CDT 9:41 PM CDT
Moon 1:17 PM CDT (7/9) 12:41 AM CDT (7/9)
Length of Visible Light 15h 06m
Length of Day
14h 10m
First Quarter, 53% of the Moon is Illuminated
Jul 9
First Quarter
Jul 16
Full
Jul 24
Last Quarter
Jul 31
New
Aug 7
First Quarter

Hourly Weather History & Observations

Time (CDT) Temp. Heat Index Dew Point Humidity Pressure Visibility Wind Dir Wind Speed Gust Speed Precip Events Conditions
10:15 AM 88.0 °F 98.0 °F 75.4 °F 66% 29.97 in 10.0 mi NW 4.6 mph - N/A   Clear
10:35 AM 89.2 °F 100.7 °F 76.1 °F 65% 29.97 in 10.0 mi Calm Calm - N/A   Clear
10:55 AM 90.7 °F 101.3 °F 75.2 °F 60% 29.97 in 7.0 mi NNW 5.8 mph - N/A   Clear
11:15 AM 91.4 °F 100.1 °F 73.4 °F 55% 29.96 in 7.0 mi NW 5.8 mph - N/A   Scattered Clouds
11:35 AM 92.1 °F 99.9 °F 72.0 °F 52% 29.96 in 10.0 mi NNW 4.6 mph - N/A   Scattered Clouds
11:55 AM 93.0 °F 100.7 °F 72.0 °F 50% 29.96 in 10.0 mi WNW 9.2 mph - N/A   Scattered Clouds
12:15 PM 94.1 °F 101.2 °F 71.2 °F 47% 29.96 in 10.0 mi North 5.8 mph - N/A   Scattered Clouds
12:35 PM 94.3 °F 100.4 °F 70.0 °F 45% 29.96 in 7.0 mi WNW 8.1 mph - N/A   Scattered Clouds
12:55 PM 94.6 °F 102.4 °F 71.8 °F 47% 29.95 in 7.0 mi NNW 6.9 mph - N/A   Clear
1:15 PM 95.0 °F 101.9 °F 70.7 °F 45% 29.94 in 10.0 mi North 6.9 mph - N/A   Scattered Clouds
1:35 PM 95.7 °F 102.1 °F 70.0 °F 43% 29.94 in 10.0 mi NNW 10.4 mph - N/A   Clear
1:55 PM 94.6 °F 101.1 °F 70.0 °F 45% 29.93 in 10.0 mi NNW 9.2 mph - N/A   Scattered Clouds
2:15 PM 96.1 °F 102.9 °F 70.5 °F 43% 29.93 in 7.0 mi NNW 6.9 mph - N/A   Scattered Clouds
2:35 PM 95.2 °F 102.3 °F 71.1 °F 45% 29.92 in 7.0 mi NNW 8.1 mph - N/A   Mostly Cloudy
2:55 PM 96.1 °F 102.9 °F 70.3 °F 43% 29.91 in 7.0 mi NNW 9.2 mph 18.4 mph N/A   Scattered Clouds
3:15 PM 97.0 °F 104.8 °F 71.1 °F 43% 29.90 in 10.0 mi NNW 9.2 mph - N/A   Scattered Clouds
3:35 PM 95.2 °F 102.3 °F 70.7 °F 45% 29.89 in 7.0 mi WNW 9.2 mph - N/A   Clear
3:55 PM 97.3 °F 104.9 °F 70.9 °F 42% 29.90 in 7.0 mi North 8.1 mph - N/A   Mostly Cloudy
4:15 PM 96.6 °F 103.4 °F 70.2 °F 42% 29.90 in 10.0 mi North 5.8 mph - N/A   Scattered Clouds
4:35 PM 96.4 °F 103.0 °F 70.2 °F 42% 29.90 in 10.0 mi NW 8.1 mph - N/A   Clear
4:55 PM 96.8 °F 103.8 °F 70.5 °F 42% 29.89 in 10.0 mi NNW 6.9 mph - N/A   Clear
5:15 PM 96.8 °F 102.5 °F 68.5 °F 40% 29.89 in 10.0 mi North 5.8 mph - N/A   Clear
5:35 PM 96.3 °F 102.6 °F 69.6 °F 42% 29.89 in 7.0 mi North 4.6 mph - N/A   Clear
5:55 PM 96.1 °F 103.5 °F 70.9 °F 44% 29.89 in 10.0 mi Calm Calm - N/A   Clear
6:15 PM 95.9 °F 103.2 °F 70.7 °F 44% 29.89 in 7.0 mi Calm Calm - N/A   Clear
6:35 PM 95.5 °F 101.8 °F 70.0 °F 43% 29.91 in 10.0 mi Calm Calm - N/A   Clear
6:55 PM 94.6 °F 101.8 °F 70.9 °F 46% 29.91 in 10.0 mi Calm Calm - N/A   Clear
7:15 PM 93.4 °F 100.9 °F 71.6 °F 49% 29.91 in 10.0 mi Calm Calm - N/A   Clear
7:35 PM 91.8 °F 100.9 °F 73.4 °F 55% 29.91 in 10.0 mi Calm Calm - N/A   Clear
7:55 PM 90.7 °F 100.1 °F 74.1 °F 58% 29.92 in 7.0 mi Calm Calm - N/A   Clear
8:15 PM 87.1 °F 95.9 °F 74.3 °F 66% 29.94 in 10.0 mi Calm Calm - N/A   Clear
8:35 PM 85.5 °F 93.8 °F 74.7 °F 70% 29.95 in 10.0 mi ESE 12.7 mph 20.7 mph N/A   Scattered Clouds
8:55 PM 83.7 °F 88.9 °F 71.8 °F 67% 29.93 in 10.0 mi ESE 3.5 mph - N/A   Scattered Clouds
9:15 PM 82.2 °F 86.9 °F 71.4 °F 70% 29.93 in 10.0 mi Calm Calm - N/A   Clear
9:35 PM 81.5 °F 85.5 °F 71.1 °F 70% 29.93 in 10.0 mi Calm Calm - N/A   Clear
9:55 PM 80.6 °F 84.4 °F 71.2 °F 73% 29.94 in 10.0 mi Calm Calm - N/A   Clear
10:15 PM 79.0 °F - 71.8 °F 78% 29.93 in 10.0 mi Calm Calm - N/A   Clear
10:35 PM 78.1 °F - 71.8 °F 81% 29.94 in 10.0 mi Calm Calm - N/A   Clear
10:55 PM 78.3 °F - 72.0 °F 81% 29.95 in 10.0 mi Calm Calm - N/A   Clear
11:15 PM 77.2 °F - 72.0 °F 84% 29.95 in 7.0 mi Calm Calm - N/A   Clear
11:35 PM 77.0 °F - 72.0 °F 84% 29.96 in 10.0 mi Calm Calm - N/A   Clear
11:55 PM 76.1 °F - 72.3 °F 88% 29.96 in 7.0 mi Calm Calm - N/A   Clear